Location: Bathurst
(33.4193°S, 149.5775°E)
Time: 18:48:33
(UTC+10:00)

Transit 2A - All Passes

Search period start: 15 June 2021 00:00
Search period end: 25 June 2021 00:00
Orbit: 601 x 958 km, 66.7° (Epoch: 14 June)

Date Brightness Start Highest point End Pass type
(mag) Time Alt. Az. Time Alt. Az. Time Alt. Az.
15 Jun - 03:52:44 10° NE 03:56:51 19° ENE 04:01:04 10° ESE visible
15 Jun - 05:33:22 10° NW 05:39:30 62° WSW 05:45:52 10° SSE visible
15 Jun - 07:22:34 10° WSW 07:24:01 11° SW 07:25:28 10° SSW daylight
15 Jun - 14:25:39 10° SSW 14:31:08 48° ESE 14:36:02 10° NE daylight
15 Jun - 16:10:17 10° WSW 16:13:44 17° WNW 16:16:59 10° NW daylight
16 Jun - 03:20:46 10° ENE 03:22:56 12° E 03:25:07 10° E visible
16 Jun - 04:59:04 10° NNW 05:05:17 88° WSW 05:11:44 10° SSE visible
16 Jun - 06:45:51 10° W 06:49:25 15° SW 06:53:00 10° SSW daylight
16 Jun - 13:51:43 10° S 13:56:48 32° SE 14:01:23 10° ENE daylight
16 Jun - 15:35:15 10° SW 15:39:48 27° WNW 15:43:58 10° NNW daylight
17 Jun - 04:25:01 10° NNW 04:31:08 65° ENE 04:37:29 10° SSE visible
17 Jun - 06:10:13 10° W 06:14:54 21° SW 06:19:37 10° S visible
17 Jun - 13:17:58 10° S 13:22:22 23° SE 13:26:26 10° ENE daylight
17 Jun - 15:00:37 10° SW 15:05:49 42° WNW 15:10:28 10° N daylight
18 Jun - 03:51:14 10° N 03:57:03 44° ENE 04:03:04 10° SE visible
18 Jun - 05:35:03 10° WNW 05:40:26 29° SW 05:45:56 10° S visible
18 Jun - 12:44:30 10° S 12:47:52 16° SE 12:51:04 10° E daylight
18 Jun - 14:26:12 10° SSW 14:31:44 67° WNW 14:36:39 10° NNE daylight
19 Jun - 03:17:44 10° NNE 03:23:01 30° ENE 03:28:27 10° SE visible
19 Jun - 05:00:12 10° NW 05:06:05 41° WSW 05:12:04 10° SSE visible
19 Jun - 12:11:50 10° SSE 12:13:18 11° SE 12:14:44 10° ESE daylight
19 Jun - 13:51:59 10° SSW 13:57:35 80° ESE 14:02:34 10° NNE daylight
20 Jun - 02:44:39 10° NNE 02:49:02 20° ENE 02:53:32 10° ESE visible
20 Jun - 04:25:38 10° NW 04:31:47 58° WSW 04:38:05 10° SSE visible
20 Jun - 13:17:52 10° SSW 13:23:21 52° ESE 13:28:14 10° NE daylight
20 Jun - 15:02:49 10° WSW 15:05:52 15° WNW 15:08:45 10° NW daylight
21 Jun - 02:12:21 10° NE 02:15:07 13° ENE 02:17:54 10° ESE night (unlit)
21 Jun - 03:51:18 10° NNW 03:57:33 82° WSW 04:03:58 10° SSE visible
21 Jun - 05:38:27 10° WSW 05:41:44 14° SW 05:45:01 10° SSW visible
21 Jun - 12:43:55 10° S 12:49:02 35° SE 12:53:38 10° ENE daylight
21 Jun - 14:27:39 10° SW 14:31:57 24° WNW 14:35:55 10° NNW daylight
22 Jun - 03:17:11 10° NNW 03:23:23 70° ENE 03:29:45 10° SSE visible
22 Jun - 05:02:42 10° W 05:07:12 20° SW 05:11:43 10° S visible
22 Jun - 12:10:08 10° S 12:14:38 24° SE 12:18:44 10° ENE daylight
22 Jun - 13:52:56 10° SW 13:57:58 38° WNW 14:02:29 10° N daylight
23 Jun - 02:43:20 10° N 02:49:16 48° ENE 02:55:22 10° SE visible
23 Jun - 04:27:27 10° WNW 04:32:44 27° SW 04:38:05 10° S visible
23 Jun - 11:36:37 10° S 11:40:08 17° SE 11:43:27 10° E daylight
23 Jun - 13:18:30 10° SSW 13:23:54 61° WNW 13:28:44 10° NNE daylight
24 Jun - 02:09:46 10° NNE 02:15:13 33° ENE 02:20:48 10° SE night (unlit)
24 Jun - 03:52:32 10° NW 03:58:21 38° WSW 04:04:16 10° S visible
24 Jun - 11:03:43 10° SSE 11:05:34 12° SE 11:07:22 10° ESE daylight
24 Jun - 12:44:14 10° SSW 12:49:46 86° ESE 12:54:42 10° NNE daylight
